Temperature
15 15 16 16 19 20 21 21 20 19 19 18 17 18 20 20 20 18 13 13 13 14 14 14 15 15 15 15 15 15 15 15 15 15 15 15 15 15 15 15 15 15 15 15 15 15 15 15 15
15 15 15 17 20 21 21 20 19 19 18 16 16 17 18 17 14 13 13 13 13 13 14 14 14 15 15 15 15 15 15 15 15 15 15 15 15 15 15 15 15 15 15 15 15 15 15 15 15
15 15 16 19 19 21 21 19 19 17 16 16 16 16 16 15 13 12 13 13 13 13 13 14 14 14 15 15 15 15 15 15 15 15 15 15 15 15 15 15 15 15 15 15 15 15 15 15 15
14 15 17 19 19 19 19 19 17 17 16 15 16 16 14 12 12 12 13 13 13 13 13 14 14 14 14 14 14 14 15 15 15 15 15 15 15 15 15 15 15 15 15 14 14 14 14 14 14
14 16 18 18 18 18 18 17 16 17 17 15 16 16 14 12 12 12 13 12 13 13 13 13 14 14 14 14 14 14 14 14 14 14 15 14 14 14 15 15 15 14 14 14 14 14 14 14 14
15 17 18 18 18 17 17 15 16 17 16 15 15 16 14 12 12 12 12 12 12 13 13 13 13 13 13 14 14 14 14 14 14 14 14 14 14 14 14 14 14 14 14 14 14 14 14 14 14
16 17 18 18 17 17 16 15 15 16 16 15 14 15 13 11 12 12 12 12 12 12 12 13 13 13 13 13 13 13 14 14 14 14 14 14 14 14 14 14 14 14 14 14 14 14 14 14 14
14 16 16 17 17 16 15 14 14 14 15 12 12 15 13 11 11 11 12 12 12 12 12 12 12 13 13 13 13 13 13 13 13 13 14 14 14 14 14 14 14 14 14 14 14 14 14 14 13
13 16 16 16 16 16 14 14 13 11 12 11 11 11 10 11 11 11 11 11 12 12 12 12 12 12 12 12 12 13 13 13 13 13 13 13 13 13 13 13 14 14 14 14 14 14 14 13 13
13 15 16 15 15 15 13 13 13 12 13 12 11 10 10 10 10 11 11 11 11 11 11 11 12 12 12 12 12 12 12 12 12 12 13 13 13 13 13 13 13 13 13 13 13 13 13 13 13
13 14 14 13 12 12 12 12 12 13 13 12 11 10 9 9 10 10 10 10 11 11 11 11 11 11 11 11 11 11 12 12 12 12 12 12 12 12 12 12 13 13 13 13 13 13 13 13 12
12 12 12 12 10 11 12 11 11 11 12 10 9 9 9 9 9 9 10 10 10 10 10 11 11 11 11 11 11 11 11 11 11 11 11 12 12 12 12 12 12 12 12 12 12 12 12 12 12
12 12 10 10 10 10 10 11 11 10 9 9 8 8 9 9 9 9 9 9 9 10 10 10 10 10 10 10 11 10 11 11 11 11 11 11 11 12 12 12 12 12 12 12 12 12 12 12 12
11 11 10 10 10 10 10 10 10 9 8 8 8 8 8 8 8 8 9 9 9 9 9 10 10 10 10 10 10 10 10 10 10 10 10 11 11 11 11 11 11 11 11 12 12 12 12 11 11
9 11 11 11 10 10 10 11 10 9 8 8 8 8 7 7 7 8 8 8 9 9 9 9 9 9 10 10 10 10 10 10 10 10 10 10 10 11 11 11 11 11 11 11 11 11 11 11 11
11 11 12 11 10 10 11 12 11 8 8 8 8 7 7 7 7 7 7 8 8 8 9 9 9 9 9 9 9 9 9 9 9 9 9 10 10 10 10 10 11 11 11 11 11 11 11 11 10
11 12 12 11 10 10 11 11 11 8 8 8 7 7 6 6 6 7 7 7 8 8 8 8 8 9 9 9 9 9 9 9 9 9 9 9 9 9 10 10 10 10 10 10 10 10 10 10 10
12 12 11 11 10 10 10 10 10 8 8 8 7 6 6 6 6 6 6 7 7 7 7 7 8 8 8 8 8 8 8 8 8 8 8 9 9 9 9 9 9 10 10 10 10 10 10 9 9
11 11 10 11 10 9 10 10 10 8 8 8 7 6 6 5 5 5 6 6 6 6 7 7 7 7 7 7 7 7 7 8 8 8 8 8 8 8 8 8 9 9 9 9 9 9 9 9 9
9 10 10 9 9 9 9 9 9 8 8 7 7 6 6 5 5 5 5 5 6 6 6 6 6 7 7 7 7 7 7 7 7 7 7 7 7 8 8 8 8 8 8 8 8 8 8 8 8
9 10 9 9 8 8 8 9 10 8 7 6 6 6 5 5 4 4 5 5 5 5 5 5 6 6 6 6 6 6 6 6 7 7 7 7 7 7 7 7 7 7 7 7 7 8 8 8 7
9 9 8 8 8 9 9 10 10 9 8 7 6 5 5 4 4 4 4 4 4 5 5 5 5 5 5 6 6 6 6 6 6 6 6 6 6 6 6 6 6 6 6 7 7 7 7 7 6
8 8 7 8 8 8 8 8 10 8 8 8 7 5 4 4 4 3 4 4 4 4 4 5 5 5 5 5 5 5 5 5 5 5 5 5 5 6 6 6 6 6 6 6 6 6 6 6 6
7 7 7 7 7 7 8 9 10 9 8 8 7 5 4 3 3 3 3 4 4 4 4 4 4 4 4 4 5 5 5 5 5 5 5 5 5 5 5 5 5 5 5 5 5 5 5 5 5
7 8 8 8 8 9 7 8 9 8 7 7 6 5 4 3 3 3 3 3 3 3 4 4 4 4 4 4 4 4 4 4 4 4 4 4 4 4 4 4 4 4 4 4 5 5 5 5 5
7 8 8 9 9 9 7 8 9 7 6 5 4 4 3 3 3 3 3 3 3 3 3 3 3 3 3 3 3 4 4 4 4 4 4 4 4 4 4 4 4 4 4 4 4 4 4 4 4
6 7 7 7 6 7 8 8 7 6 5 5 4 4 3 3 2 2 2 2 2 3 2 2 2 3 3 3 3 3 3 3 3 3 3 3 3 3 3 3 3 3 3 3 3 3 4 4 4
6 6 6 7 7 8 9 8 9 7 6 5 4 4 3 2 2 2 2 2 2 2 2 2 2 2 2 2 2 2 2 2 2 2 2 2 2 2 2 2 3 3 3 3 3 3 3 3 3
5 5 6 6 7 8 9 9 8 7 6 5 5 3 3 2 1 1 1 1 2 2 2 2 2 2 2 2 2 2 2 2 2 2 2 2 2 2 2 2 2 2 2 2 2 2 2 2 2
5 6 6 6 6 6 8 8 5 5 5 4 4 3 2 1 1 1 1 1 1 1 1 1 1 1 1 1 1 1 1 1 1 1 1 1 1 2 2 2 2 2 2 2 2 2 2 2 2
Wind_Speed
4 3 2 3 4 5 7 4 3 3 3 1 1 1 2 1 2 1 3 4 4 2 1 2 3 4 4 6 7 7 8 9 9 9 9 9 10 10 10 10 10 9 9 10 10 11 11 11 11
3 2 3 3 5 8 6 5 6 3 1 1 1 1 1 1 3 3 3 4 4 3 2 2 4 4 4 5 5 6 7 8 9 8 8 9 10 10 9 9 9 9 9 10 10 10 11 11 11
1 2 3 4 6 8 5 4 4 2 1 1 2 0 0 1 2 2 3 3 2 4 4 4 5 5 5 5 5 5 5 6 7 8 8 9 9 9 9 9 9 8 9 9 10 10 10 10 10
2 3 3 5 9 6 3 3 3 3 2 1 2 2 2 3 3 3 3 2 2 3 4 5 5 5 5 5 5 5 5 5 6 6 7 8 8 8 8 8 8 8 8 8 9 9 10 9 9
2 3 5 7 8 4 2 1 2 3 2 2 2 2 2 3 4 3 2 2 3 3 4 5 6 6 5 6 6 5 5 5 5 5 6 7 8 8 8 7 7 7 7 8 8 9 9 9 9
3 3 6 9 8 5 3 2 3 3 2 2 2 2 2 3 3 3 3 3 4 4 4 4 5 5 5 5 5 5 4 4 5 5 5 6 7 7 7 7 7 7 7 7 8 8 8 8 8
4 4 7 8 7 6 3 2 3 3 3 2 1 2 3 2 3 2 2 3 4 5 4 4 4 4 4 5 4 4 4 3 4 4 5 5 5 7 7 7 7 6 6 7 7 7 7 7 8
2 3 6 6 7 6 3 2 1 3 2 1 1 3 1 1 1 1 2 3 4 5 5 5 4 3 2 3 4 4 4 3 3 4 4 4 5 6 6 7 7 6 6 6 7 7 7 7 7
2 5 8 7 6 4 3 2 1 1 1 1 1 2 3 2 2 2 2 3 3 4 5 4 4 3 2 2 3 2 3 2 2 3 4 4 4 5 5 6 6 6 6 6 7 7 7 7 7
4 7 7 3 4 3 3 2 1 2 3 2 2 1 3 2 3 3 2 1 2 3 4 4 3 3 2 2 2 1 1 1 1 1 2 2 2 3 3 5 6 6 6 6 6 7 7 6 5
4 5 4 3 2 2 3 2 2 4 4 4 3 2 2 2 1 1 1 0 1 1 2 3 3 3 2 2 2 2 2 2 1 1 1 1 2 2 3 3 5 6 6 5 5 6 5 4 4
3 3 3 3 1 2 3 2 2 4 3 1 1 2 2 2 2 1 1 1 1 1 2 3 3 2 2 2 1 1 2 2 2 2 2 1 0 1 2 2 2 3 3 3 3 3 4 4 4
5 3 2 2 2 2 2 4 3 4 3 1 1 2 3 2 2 1 1 1 1 1 2 2 2 2 2 1 1 1 2 2 2 2 2 1 0 1 1 2 2 2 3 3 3 3 3 3 3
3 3 3 3 3 3 3 4 3 4 2 3 3 3 3 2 2 1 2 2 2 2 2 2 2 2 1 1 1 1 2 2 2 2 3 2 1 0 1 1 1 2 2 3 3 3 3 3 2
2 3 4 4 4 3 3 4 5 5 3 3 3 3 2 2 1 1 2 2 2 2 1 2 1 1 1 1 1 2 1 2 2 1 2 3 2 1 1 1 1 1 2 2 3 3 3 3 3
3 4 5 4 3 4 6 7 3 3 4 4 3 3 2 2 1 2 2 2 2 2 1 2 1 1 1 0 1 1 1 1 1 1 1 2 2 1 0 0 0 0 1 2 3 3 3 3 3
5 6 7 4 4 4 6 7 3 3 4 5 4 4 3 2 2 2 2 2 2 2 2 2 2 1 1 0 1 1 1 2 1 1 1 2 2 1 0 0 1 0 1 2 2 3 3 3 3
7 6 7 7 4 5 7 8 6 4 5 6 5 4 4 3 3 2 1 2 2 2 2 2 2 1 1 1 1 1 1 1 1 2 2 2 1 1 0 0 0 0 0 1 2 2 2 2 2
6 7 8 7 3 5 8 9 8 6 5 6 5 5 4 3 2 1 1 2 2 3 3 2 2 2 1 1 0 0 0 1 1 1 2 2 1 1 1 1 0 0 1 1 1 2 2 2 2
7 8 8 5 2 4 6 10 8 7 6 6 6 5 4 3 1 1 2 2 2 3 3 3 3 2 1 1 0 1 1 1 1 1 2 2 2 1 0 1 1 1 1 1 1 1 1 1 2
9 10 9 6 3 4 4 8 7 4 3 3 4 4 3 3 2 1 1 2 2 3 3 2 3 2 2 1 0 0 1 1 1 1 1 3 2 1 1 1 2 1 2 2 2 3 3 2 2
8 6 7 6 5 4 4 6 6 4 4 3 3 2 2 1 1 1 1 2 2 2 2 2 2 2 2 1 1 1 1 1 1 1 1 2 2 1 1 2 2 2 2 3 2 3 3 4 3
4 2 4 5 6 5 5 6 5 4 5 4 3 2 1 1 1 0 1 1 2 2 2 2 2 2 2 1 1 2 2 2 1 1 2 2 1 1 1 2 2 3 3 3 2 3 3 3 4
4 4 3 2 4 6 7 7 6 4 5 4 3 2 1 0 0 0 1 2 2 2 2 2 2 2 2 2 2 2 2 2 2 2 2 2 2 2 2 2 2 3 3 3 3 3 4 4 4
5 4 2 4 5 5 4 6 6 2 3 4 3 2 0 0 0 1 1 2 2 2 2 2 2 2 2 2 2 2 3 3 3 3 3 3 3 3 3 3 3 3 3 3 4 4 4 5 5
7 6 4 4 4 3 4 6 3 0 1 2 2 1 0 1 1 2 2 2 3 3 3 3 3 3 3 3 3 3 3 2 2 3 3 4 3 4 4 4 4 4 4 4 4 4 5 5 5
5 6 3 2 1 3 5 4 4 2 2 2 2 1 1 2 2 3 3 3 3 3 3 3 3 4 3 3 3 3 3 3 3 3 3 3 3 3 5 4 4 4 4 4 4 5 5 5 6
2 4 3 4 4 5 5 6 4 4 5 4 3 2 2 2 3 4 3 4 4 3 3 3 4 4 4 3 3 3 4 4 4 3 4 4 4 4 5 5 5 5 4 4 5 5 5 5 5
5 5 4 4 3 4 4 3 1 4 5 5 4 3 3 3 4 4 4 4 4 3 3 3 3 3 3 3 3 3 4 4 4 4 4 4 4 4 5 5 5 5 5 5 5 5 5 6 6
4 5 6 4 4 4 4 4 1 2 3 3 4 4 3 3 3 3 4 4 4 3 3 3 3 3 3 3 3 3 4 4 4 4 4 4 5 5 5 5 5 6 5 5 6 6 6 6 7
Wind_Direction
328 308 254 221 214 222 228 205 192 170 174 106 22 244 226 253 286 39 48 25 10 24 35 89 73 89 99 110 113 123 126 128 131 133 134 133 131 130 129 125 122 120 119 119 118 116 116 115 112
317 279 215 216 228 224 219 200 194 181 114 124 156 214 206 115 35 45 43 8 12 43 50 67 72 85 94 108 108 119 128 128 131 131 132 132 129 129 130 129 126 124 121 118 118 116 115 117 116
261 264 215 210 226 231 213 172 174 136 124 196 158 125 320 60 48 34 12 355 26 51 49 59 70 75 86 101 105 106 121 126 129 128 130 131 130 128 127 128 127 125 124 122 118 116 116 119 122
215 189 207 225 224 232 236 153 147 160 153 182 187 148 110 47 18 14 11 14 62 58 51 58 65 75 86 88 99 97 108 119 127 129 130 133 131 128 127 124 124 124 124 126 124 121 121 119 122
218 206 209 223 231 226 224 219 200 213 191 177 208 188 135 81 41 37 40 50 64 60 48 55 60 68 84 84 83 94 97 110 113 124 132 134 132 130 126 125 120 122 126 128 127 126 126 126 122
187 210 221 226 223 214 216 220 218 224 210 194 216 210 133 96 50 39 46 58 55 53 46 51 56 57 68 74 77 80 85 106 114 114 122 135 137 134 129 125 124 121 125 127 127 126 127 127 127
210 212 230 228 224 220 207 202 222 227 217 212 241 210 155 121 43 38 54 66 60 54 48 48 50 52 63 65 66 71 71 99 115 113 113 115 138 142 138 135 132 129 126 133 135 133 134 132 130
235 216 221 220 222 221 178 175 247 252 233 48 255 232 187 101 71 76 72 63 57 50 42 38 37 39 52 70 66 67 65 84 104 111 112 111 126 148 149 143 139 137 132 138 141 139 137 135 133
210 220 224 217 216 206 171 194 162 357 179 225 288 348 24 92 135 111 78 52 44 39 30 26 28 34 38 60 69 73 73 78 103 121 117 132 149 155 161 152 142 144 140 140 145 147 143 140 135
203 224 227 217 214 202 182 214 193 201 223 230 217 83 71 118 144 127 103 70 33 19 17 17 18 24 38 55 69 71 87 104 97 115 158 165 154 153 152 146 145 147 144 146 146 149 151 154 147
202 227 213 202 197 204 211 232 218 225 244 248 232 180 139 150 156 156 171 127 360 358 6 7 11 16 27 42 64 67 66 62 64 79 69 163 152 147 160 155 161 163 163 163 155 163 164 164 152
198 219 216 202 179 215 228 224 229 237 252 313 199 168 169 181 197 214 225 269 327 351 346 350 3 12 19 25 46 70 81 65 58 46 40 44 136 159 161 162 169 175 171 168 171 170 165 167 161
207 205 207 212 210 234 233 237 251 246 247 223 183 183 198 201 214 252 267 278 299 315 317 326 345 357 10 20 22 64 80 72 75 60 33 10 122 184 167 161 164 176 170 171 173 169 163 169 167
192 195 218 226 223 219 227 257 234 245 214 204 201 204 212 217 229 252 289 289 281 284 293 306 322 336 7 27 28 43 65 76 70 60 40 15 6 153 182 166 175 178 178 179 182 169 168 172 174
175 214 230 222 227 214 218 251 232 221 194 209 216 221 224 237 248 265 283 296 298 302 300 301 303 335 360 36 43 42 53 80 75 63 48 32 13 14 179 162 170 177 176 175 176 173 172 170 176
197 216 227 196 203 199 216 251 221 195 203 226 235 234 229 246 273 296 301 304 320 331 345 357 6 8 357 54 88 64 42 57 61 58 52 43 26 20 84 133 149 107 173 174 174 183 180 176 182
208 230 232 219 201 197 217 253 235 212 221 237 242 237 228 238 277 298 312 316 328 330 336 4 18 27 9 26 99 90 64 48 53 57 48 45 35 28 17 44 40 60 164 175 177 187 187 183 185
226 232 232 231 200 209 229 249 259 254 243 244 245 241 233 234 257 281 316 337 345 349 354 4 11 22 30 50 100 127 96 42 36 31 27 24 38 15 0 29 74 88 157 182 176 183 178 187 192
232 230 249 252 227 231 244 255 261 259 250 245 240 237 235 237 243 295 335 357 8 14 13 10 1 7 18 22 333 208 255 298 324 11 20 8 10 16 358 324 183 131 189 211 188 173 163 176 182
222 232 251 267 199 231 258 267 266 251 242 241 236 229 229 237 260 326 351 3 3 3 2 1 355 355 350 330 289 255 254 257 284 7 13 1 360 7 353 283 254 207 209 201 188 174 176 175 181
231 233 246 263 268 225 261 262 236 223 226 232 230 225 228 234 250 297 341 348 347 350 349 347 344 341 337 324 302 137 201 250 300 328 330 346 341 324 265 249 241 220 213 210 211 203 193 197 197
246 233 232 243 239 240 228 264 241 216 222 216 213 215 236 242 249 278 331 342 339 335 337 343 346 345 343 323 233 203 214 241 269 286 289 308 323 297 265 243 237 226 221 212 213 220 216 200 203
237 177 198 228 232 249 225 245 252 196 228 227 220 223 238 239 226 277 330 325 320 335 338 342 355 353 343 322 268 222 227 243 261 266 273 277 294 307 286 247 236 234 233 225 221 229 226 217 216
164 137 142 193 216 238 224 226 256 215 224 217 220 224 222 231 245 318 348 333 327 338 343 346 347 340 333 317 291 253 233 236 242 251 255 260 265 269 276 262 242 237 240 233 228 230 231 229 226
184 181 214 212 215 234 184 222 252 245 228 213 213 219 240 297 308 317 336 330 323 324 327 323 316 314 315 307 297 283 268 253 242 245 246 253 254 255 257 264 254 243 238 234 232 230 234 235 232
198 206 224 242 238 239 194 229 246 311 238 210 200 219 281 297 326 318 314 313 305 299 301 298 291 292 297 294 294 288 284 274 262 257 252 250 252 251 252 255 253 248 241 232 231 232 233 237 239
193 209 236 250 253 253 231 236 250 226 205 196 201 235 288 298 313 319 320 312 306 293 285 280 277 279 284 283 281 279 274 267 267 266 263 260 260 255 245 244 243 244 243 239 234 234 233 235 237
236 171 176 206 227 246 238 234 226 204 211 208 220 242 270 299 308 314 315 310 311 294 282 278 268 267 276 276 273 275 272 267 265 266 263 260 262 260 247 244 241 238 240 242 241 244 242 240 239
178 190 207 208 241 248 253 236 200 228 217 215 230 252 273 290 297 302 309 312 311 299 285 279 274 273 275 275 274 277 275 271 266 264 264 264 262 258 245 241 240 238 239 240 241 243 245 246 244
223 215 204 221 224 225 255 267 58 239 220 237 258 272 281 288 294 298 306 312 309 303 296 286 278 278 282 282 280 282 282 275 267 265 265 265 261 257 250 244 240 240 241 242 241 244 246 246 243
Height
1505 1506 1508 1510 1509 1504 1500 1500 1502 1505 1506 1509 1509 1508 1506 1506 1507 1513 1515 1511 1512 1513 1514 1514 1515 1516 1517 1517 1518 1518 1519 1519 1520 1521 1521 1522 1523 1524 1524 1525 1525 1526 1527 1527 1527 1527 1528 1528 1528
1505 1507 1510 1510 1504 1502 1499 1500 1503 1504 1508 1510 1510 1509 1508 1510 1512 1513 1511 1511 1512 1513 1514 1514 1515 1516 1517 1517 1518 1518 1519 1519 1520 1521 1521 1522 1523 1524 1524 1525 1525 1526 1527 1527 1528 1528 1528 1528 1529
1506 1507 1510 1506 1501 1497 1497 1501 1503 1507 1509 1510 1510 1510 1510 1512 1512 1512 1511 1511 1512 1513 1514 1514 1515 1516 1516 1517 1518 1518 1519 1519 1520 1521 1521 1522 1523 1523 1524 1525 1525 1526 1527 1527 1528 1528 1528 1529 1529
1507 1509 1509 1504 1500 1499 1499 1502 1506 1507 1509 1510 1510 1510 1512 1512 1512 1512 1511 1512 1512 1513 1514 1514 1515 1515 1516 1517 1517 1518 1518 1519 1520 1520 1521 1522 1522 1523 1524 1524 1525 1526 1527 1527 1528 1528 1528 1529 1529
1506 1507 1504 1502 1500 1501 1504 1506 1507 1506 1507 1509 1510 1509 1511 1512 1511 1511 1511 1512 1512 1513 1513 1514 1514 1515 1515 1516 1517 1517 1518 1518 1519 1520 1520 1521 1522 1522 1523 1524 1525 1526 1526 1527 1527 1528 1528 1529 1529
1508 1505 1501 1499 1498 1502 1505 1507 1507 1506 1507 1509 1510 1509 1511 1511 1510 1511 1511 1512 1512 1512 1513 1513 1514 1514 1515 1515 1516 1516 1517 1517 1518 1519 1520 1520 1521 1522 1522 1523 1524 1525 1526 1526 1527 1527 1528 1529 1529
1507 1503 1498 1497 1499 1501 1505 1508 1507 1506 1507 1509 1510 1509 1510 1510 1510 1510 1511 1511 1512 1512 1512 1512 1512 1513 1514 1514 1515 1515 1516 1516 1517 1518 1519 1519 1520 1521 1521 1522 1523 1524 1525 1526 1526 1527 1528 1528 1529
1505 1504 1500 1499 1499 1500 1506 1507 1508 1508 1508 1510 1510 1509 1509 1510 1509 1509 1510 1511 1511 1511 1511 1512 1512 1512 1512 1513 1513 1514 1515 1515 1516 1516 1517 1518 1518 1519 1520 1521 1522 1523 1524 1525 1525 1526 1527 1527 1528
1505 1504 1498 1498 1499 1501 1506 1507 1508 1508 1509 1509 1509 1510 1509 1509 1508 1509 1509 1510 1510 1510 1510 1511 1511 1511 1511 1511 1512 1512 1513 1513 1514 1515 1516 1517 1517 1518 1519 1520 1521 1522 1523 1523 1524 1525 1526 1526 1527
1505 1500 1497 1501 1501 1503 1505 1506 1507 1507 1507 1508 1509 1508 1508 1508 1508 1508 1508 1508 1509 1509 1509 1509 1509 1509 1509 1510 1510 1510 1511 1511 1512 1513 1514 1515 1516 1516 1517 1518 1519 1520 1521 1522 1523 1524 1525 1525 1526
1503 1500 1501 1504 1505 1505 1505 1506 1507 1506 1505 1506 1507 1507 1507 1507 1507 1507 1507 1507 1507 1508 1508 1508 1508 1508 1508 1508 1508 1508 1509 1509 1510 1511 1512 1513 1514 1515 1516 1517 1518 1519 1520 1521 1521 1522 1523 1524 1524
1503 1503 1504 1504 1505 1505 1505 1506 1506 1505 1505 1506 1506 1506 1505 1505 1506 1506 1506 1506 1506 1506 1506 1507 1506 1506 1506 1506 1507 1507 1507 1507 1507 1508 1509 1510 1511 1512 1514 1515 1516 1517 1517 1518 1519 1520 1521 1522 1522
1502 1503 1505 1505 1505 1505 1505 1505 1505 1504 1505 1504 1504 1504 1504 1504 1504 1504 1504 1504 1504 1504 1504 1505 1505 1505 1505 1505 1505 1505 1505 1505 1504 1506 1507 1508 1509 1510 1511 1512 1513 1514 1515 1516 1517 1518 1519 1520 1520
1502 1503 1504 1504 1504 1504 1504 1504 1505 1502 1503 1503 1503 1502 1502 1502 1502 1502 1502 1502 1502 1502 1502 1502 1503 1503 1503 1503 1503 1503 1503 1503 1503 1504 1504 1505 1506 1507 1508 1509 1510 1512 1513 1514 1515 1516 1517 1518 1518
1503 1502 1501 1502 1502 1503 1503 1501 1501 1501 1502 1502 1502 1501 1501 1501 1500 1500 1500 1499 1499 1499 1499 1500 1500 1500 1501 1501 1501 1501 1501 1501 1502 1502 1503 1503 1504 1504 1506 1507 1508 1509 1510 1511 1513 1514 1515 1516 1516
1501 1499 1496 1498 1500 1501 1502 1494 1498 1500 1500 1500 1500 1500 1499 1499 1498 1498 1498 1497 1497 1497 1497 1497 1498 1498 1498 1499 1499 1499 1499 1500 1500 1500 1501 1501 1501 1502 1503 1504 1505 1506 1507 1509 1510 1511 1512 1513 1514
1496 1492 1491 1495 1498 1499 1498 1493 1496 1498 1498 1498 1498 1498 1497 1497 1496 1496 1496 1496 1495 1495 1495 1495 1495 1496 1496 1496 1496 1497 1497 1497 1498 1498 1498 1499 1499 1499 1500 1502 1503 1504 1505 1506 1507 1508 1509 1510 1511
1490 1489 1490 1492 1495 1497 1495 1492 1494 1496 1497 1496 1496 1496 1495 1495 1494 1494 1494 1494 1493 1493 1493 1493 1493 1493 1493 1494 1494 1495 1495 1495 1496 1496 1496 1496 1497 1497 1498 1499 1500 1501 1502 1503 1504 1505 1506 1507 1508
1491 1491 1491 1491 1495 1496 1492 1491 1491 1493 1494 1493 1493 1493 1493 1493 1493 1493 1492 1492 1492 1491 1491 1491 1491 1491 1491 1491 1492 1492 1493 1493 1493 1494 1494 1494 1494 1495 1495 1496 1496 1497 1499 1500 1501 1502 1503 1504 1506
1493 1492 1491 1493 1495 1495 1492 1489 1488 1489 1490 1491 1491 1491 1491 1491 1491 1491 1490 1490 1490 1489 1489 1489 1489 1489 1489 1489 1490 1490 1490 1490 1491 1491 1491 1491 1491 1492 1492 1493 1494 1494 1495 1497 1498 1498 1499 1500 1502
1491 1490 1490 1492 1494 1494 1494 1484 1483 1486 1488 1489 1489 1489 1489 1489 1489 1489 1489 1488 1488 1488 1487 1487 1487 1487 1487 1488 1488 1488 1488 1488 1488 1488 1488 1488 1488 1489 1489 1490 1491 1491 1492 1493 1494 1495 1496 1497 1499
1488 1489 1492 1493 1492 1486 1490 1479 1475 1481 1484 1486 1487 1487 1487 1488 1488 1488 1487 1487 1486 1486 1485 1485 1485 1485 1485 1485 1485 1485 1485 1485 1485 1485 1485 1486 1486 1486 1486 1487 1487 1488 1489 1489 1490 1492 1493 1495 1495
1489 1492 1493 1493 1490 1489 1487 1486 1471 1479 1480 1481 1484 1486 1486 1486 1486 1486 1486 1486 1485 1484 1484 1483 1483 1483 1483 1483 1483 1482 1482 1482 1482 1482 1482 1483 1483 1482 1482 1483 1484 1485 1485 1486 1487 1489 1490 1491 1492
1492 1493 1494 1493 1490 1489 1482 1481 1468 1472 1475 1478 1482 1484 1485 1485 1485 1484 1484 1484 1484 1483 1482 1482 1481 1481 1481 1480 1480 1480 1479 1479 1479 1479 1479 1479 1479 1479 1479 1480 1480 1481 1481 1482 1483 1485 1486 1487 1488
1491 1489 1488 1485 1484 1476 1483 1481 1471 1473 1476 1478 1480 1482 1483 1483 1483 1483 1482 1482 1481 1481 1480 1480 1479 1478 1478 1477 1477 1477 1476 1476 1476 1476 1476 1475 1476 1476 1476 1477 1477 1477 1478 1479 1480 1481 1482 1483 1484
1487 1486 1483 1477 1471 1470 1482 1476 1470 1476 1477 1479 1480 1481 1481 1482 1482 1481 1480 1480 1479 1479 1478 1477 1476 1476 1475 1474 1474 1474 1473 1473 1472 1472 1472 1472 1472 1472 1473 1473 1473 1474 1474 1475 1476 1477 1478 1479 1480
1486 1485 1485 1485 1486 1481 1470 1471 1474 1475 1477 1478 1479 1479 1480 1480 1480 1479 1478 1477 1477 1476 1475 1474 1473 1473 1472 1471 1471 1470 1470 1469 1469 1469 1468 1468 1468 1469 1469 1470 1470 1470 1471 1471 1472 1473 1474 1475 1476
1487 1486 1488 1484 1479 1469 1465 1466 1463 1470 1472 1475 1477 1477 1478 1478 1478 1477 1476 1475 1474 1473 1472 1471 1470 1470 1469 1468 1468 1467 1466 1466 1465 1465 1465 1464 1465 1465 1465 1465 1466 1467 1467 1468 1468 1469 1470 1471 1471
1487 1488 1484 1481 1478 1469 1462 1460 1465 1467 1469 1472 1474 1475 1476 1476 1476 1475 1474 1472 1471 1470 1469 1468 1467 1466 1465 1465 1464 1464 1463 1463 1462 1462 1462 1461 1461 1462 1462 1462 1462 1463 1463 1464 1465 1465 1466 1466 1467
1484 1481 1481 1479 1478 1476 1467 1465 1469 1470 1471 1473 1473 1474 1474 1474 1474 1473 1471 1470 1468 1467 1466 1465 1464 1463 1462 1461 1461 1460 1460 1459 1459 1458 1458 1458 1458 1458 1458 1458 1459 1459 1460 1460 1461 1461 1462 1462 1462